Simultaneous Nadir Overpasses (SNOs) Predictions

Prediction of SNOs between METOP-B and NOAA-19 Satellite Orbit:

Table of predicted SNOs for the next 14.0 days since TLE Epoch: 4/5/2019
Index Date (METOP-B) Time (METOP-B) Lat,Lon (METOP-B) SZA (METOP-B ) Date (NOAA-19) Time (NOAA-19) Lat,Lon (NOAA-19) SZA (NOAA-19 ) Distance(km) Time Diff (sec)
1 04/08/2019 12:13:16 79.13, 11.58 72.23 04/08/2019 12:12:11 79.13, 11.57 72.21 0.36 65
2 04/08/2019 13:03:57 -79.13, 178.90 107.80 04/08/2019 13:03:07 -79.13, 178.88 107.81 0.60 50
3 04/08/2019 13:54:38 79.12, -13.86 72.18 04/08/2019 13:54:12 79.14, -13.96 72.19 2.77 26
4 04/08/2019 14:45:19 -79.12, 153.46 107.84 04/08/2019 14:45:08 -79.13, 153.35 107.83 2.78 11
5 04/08/2019 15:36:00 79.11, -39.29 72.14 04/08/2019 15:36:12 79.11, -39.22 72.14 1.54 12
6 04/08/2019 16:26:41 -79.11, 128.02 107.88 04/08/2019 16:27:08 -79.10, 128.08 107.88 1.28 27
7 04/08/2019 17:17:22 79.09, -64.73 72.09 04/08/2019 17:18:13 79.11, -64.74 72.12 1.91 51
8 04/08/2019 18:08:03 -79.09, 102.59 107.93 04/08/2019 18:09:09 -79.11, 102.56 107.90 1.80 66
9 04/19/2019 10:54:34 -79.42,-146.59 111.30 04/19/2019 10:53:30 -79.43,-150.98 111.52 89.68 64
10 04/19/2019 11:45:22 79.16, 18.74 68.33 04/19/2019 11:44:27 79.16, 18.68 68.32 1.36 55
11 04/19/2019 12:36:04 -79.13,-174.11 111.72 04/19/2019 12:35:22 -79.16,-174.06 111.69 3.41 42
12 04/19/2019 13:26:44 79.15, -6.70 68.29 04/19/2019 13:26:27 79.13, -6.58 68.28 2.72 17
13 04/19/2019 14:17:25 -79.16, 160.71 111.71 04/19/2019 14:17:22 -79.13, 160.68 111.73 2.37 3
14 04/19/2019 15:08:06 79.13, -32.14 68.25 04/19/2019 15:08:28 79.14, -32.11 68.26 0.81 22
15 04/19/2019 15:58:47 -79.14, 135.27 111.75 04/19/2019 15:59:23 -79.14, 135.15 111.75 2.54 36
16 04/19/2019 16:49:28 79.12, -57.57 68.21 04/19/2019 16:50:29 79.14, -57.64 68.24 2.85 61




NCC Satellite Simultaneous Nadir Overpasses (SNOs) Prediction Service
